• In Hungary
  • List of Countries
  • For 7 days
  • Water Temperature
  • Satellite Maps
  • Weather Map
  • News
  • Weather Widgets
  • user-avatar
    Login

    Hourly Weather Halzanovo

    Today, 22 February, Thursday

    Time Temperature Precipitation Wind Pressure Humidity
    00:00 -28°C° 0 mm 1 mps 612 mmHg 96%
    01:00 -28°C° 0 mm 1 mps 611 mmHg 96%
    02:00 -29°C° 0 mm 1 mps 611 mmHg 95%
    03:00 -29°C° 0 mm 1 mps 611 mmHg 95%
    04:00 -29°C° 0 mm 1 mps 611 mmHg 95%
    05:00 -29°C° 0 mm 1 mps 611 mmHg 94%
    06:00 -29°C° 0 mm 1 mps 611 mmHg 94%
    07:00 -28°C° 0 mm 1 mps 611 mmHg 94%
    08:00 -25°C° 0 mm 1 mps 612 mmHg 89%
    09:00 -23°C° 0 mm 1 mps 613 mmHg 85%
    10:00 -21°C° 0 mm 1 mps 613 mmHg 81%
    11:00 -20°C° 0 mm 1 mps 614 mmHg 78%
    12:00 -23°C° 0 mm 2 mps 614 mmHg 76%
    13:00 -21°C° 0 mm 2 mps 614 mmHg 74%
    14:00 -23°C° 0 mm 2 mps 614 mmHg 77%
    15:00 -23°C° 0 mm 2 mps 614 mmHg 79%
    16:00 -24°C° 0 mm 2 mps 614 mmHg 81%
    17:00 -23°C° 0 mm 1 mps 613 mmHg 85%
    18:00 -25°C° 0 mm 1 mps 613 mmHg 88%
    19:00 -27°C° 0 mm 1 mps 613 mmHg 92%
    20:00 -28°C° 0 mm 1 mps 613 mmHg 93%
    21:00 -29°C° 0 mm 1 mps 613 mmHg 94%
    22:00 -29°C° 0 mm 1 mps 613 mmHg 95%
    23:00 -29°C° 0 mm 1 mps 613 mmHg 95%

    Tomorrow, 23 February, Friday

    Time Temperature Precipitation Wind Pressure Humidity
    00:00 -30°C° 0 mm 1 mps 614 mmHg 95%
    01:00 -30°C° 0 mm 1 mps 614 mmHg 95%
    02:00 -30°C° 0 mm 1 mps 614 mmHg 95%
    03:00 -30°C° 0 mm 1 mps 614 mmHg 95%
    04:00 -30°C° 0 mm 1 mps 615 mmHg 96%
    05:00 -30°C° 0 mm 1 mps 615 mmHg 95%
    06:00 -30°C° 0 mm 1 mps 615 mmHg 95%
    07:00 -30°C° 0 mm 1 mps 615 mmHg 95%
    08:00 -27°C° 0 mm 1 mps 617 mmHg 90%
    09:00 -23°C° 0 mm 1 mps 618 mmHg 86%
    10:00 -20°C° 0 mm 1 mps 619 mmHg 82%
    11:00 -19°C° 0 mm 1 mps 619 mmHg 78%
    12:00 -18°C° 0 mm 1 mps 620 mmHg 75%
    13:00 -17°C° 0 mm 1 mps 620 mmHg 71%
    14:00 -18°C° 0 mm 1 mps 620 mmHg 75%
    15:00 -18°C° 0 mm 1 mps 619 mmHg 79%
    16:00 -18°C° 0 mm 1 mps 619 mmHg 82%
    17:00 -21°C° 0 mm 1 mps 619 mmHg 85%
    18:00 -23°C° 0 mm 1 mps 618 mmHg 87%
    19:00 -25°C° 0 mm 1 mps 617 mmHg 90%
    20:00 -25°C° 0 mm 1 mps 617 mmHg 90%
    21:00 -25°C° 0 mm 1 mps 617 mmHg 90%
    22:00 -27°C° 0 mm 1 mps 617 mmHg 91%
    23:00 -27°C° 0 mm 1 mps 617 mmHg 90%

    Day after tomorrow, 24 February, Saturday

    Time Temperature Precipitation Wind Pressure Humidity
    00:00 -27°C° 0 mm 1 mps 617 mmHg 90%
    01:00 -27°C° 0 mm 1 mps 617 mmHg 90%
    02:00 -25°C° 0 mm 1 mps 617 mmHg 90%
    03:00 -25°C° 0 mm 1 mps 617 mmHg 90%
    04:00 -25°C° 0 mm 1 mps 617 mmHg 90%
    05:00 -25°C° 0 mm 1 mps 617 mmHg 91%
    06:00 -25°C° 0 mm 1 mps 617 mmHg 91%
    07:00 -25°C° 0 mm 1 mps 617 mmHg 91%
    08:00 -22°C° 0 mm 1 mps 618 mmHg 89%
    09:00 -19°C° 0 mm 1 mps 619 mmHg 87%
    10:00 -17°C° 0 mm 1 mps 620 mmHg 85%
    11:00 -16°C° 0 mm 1 mps 620 mmHg 83%
    12:00 -15°C° 0 mm 1 mps 620 mmHg 82%
    13:00 -16°C° 0 mm 2 mps 620 mmHg 81%
    14:00 -16°C° 0 mm 2 mps 620 mmHg 82%
    15:00 -16°C° 0 mm 2 mps 619 mmHg 84%
    16:00 -14°C° 0 mm 1 mps 619 mmHg 85%
    17:00 -17°C° 0 mm 1 mps 618 mmHg 88%
    18:00 -19°C° 0 mm 1 mps 618 mmHg 92%
    19:00 -21°C° 0 mm 1 mps 617 mmHg 95%
    20:00 -21°C° 0 mm 1 mps 617 mmHg 95%
    21:00 -22°C° 0 mm 1 mps 616 mmHg 94%
    22:00 -22°C° 0 mm 1 mps 616 mmHg 94%
    23:00 -23°C° 0 mm 1 mps 616 mmHg 94%

    25 February, Sunday

    Time Temperature Precipitation Wind Pressure Humidity
    00:00 -23°C° 0 mm 1 mps 616 mmHg 93%
    01:00 -23°C° 0 mm 1 mps 616 mmHg 93%
    02:00 -24°C° 0 mm 1 mps 615 mmHg 93%
    03:00 -24°C° 0 mm 1 mps 615 mmHg 93%
    04:00 -24°C° 0 mm 1 mps 615 mmHg 93%
    05:00 -24°C° 0 mm 1 mps 615 mmHg 92%
    06:00 -24°C° 0 mm 1 mps 615 mmHg 92%
    07:00 -24°C° 0 mm 1 mps 615 mmHg 92%
    08:00 -21°C° 0 mm 1 mps 616 mmHg 88%
    09:00 -18°C° 0 mm 1 mps 617 mmHg 85%
    10:00 -15°C° 0 mm 1 mps 619 mmHg 81%
    11:00 -14°C° 0 mm 1 mps 619 mmHg 79%
    12:00 -13°C° 0 mm 1 mps 619 mmHg 78%
    13:00 -12°C° 0 mm 1 mps 619 mmHg 76%
    14:00 -13°C° 0 mm 1 mps 618 mmHg 78%
    15:00 -13°C° 0 mm 1 mps 618 mmHg 80%
    16:00 -13°C° 0 mm 1 mps 618 mmHg 82%
    17:00 -16°C° 0 mm 1 mps 617 mmHg 85%
    18:00 -18°C° 0 mm 1 mps 616 mmHg 87%
    19:00 -20°C° 0 mm 1 mps 616 mmHg 89%
    20:00 -21°C° 0 mm 1 mps 616 mmHg 90%
    21:00 -21°C° 0 mm 1 mps 616 mmHg 90%
    22:00 -21°C° 0 mm 1 mps 616 mmHg 90%
    23:00 -21°C° 0 mm 1 mps 616 mmHg 90%

    26 February, Monday

    Time Temperature Precipitation Wind Pressure Humidity
    00:00 -21°C° 0 mm 1 mps 616 mmHg 90%
    01:00 -21°C° 0 mm 1 mps 616 mmHg 90%
    02:00 -21°C° 0 mm 1 mps 616 mmHg 89%
    03:00 -21°C° 0 mm 1 mps 617 mmHg 89%
    04:00 -21°C° 0 mm 1 mps 617 mmHg 89%
    05:00 -20°C° 0 mm 1 mps 617 mmHg 91%
    06:00 -20°C° 0 mm 1 mps 618 mmHg 92%
    07:00 -20°C° 0 mm 1 mps 618 mmHg 93%
    08:00 -21°C° 0 mm 2 mps 619 mmHg 90%
    09:00 -20°C° 0 mm 2 mps 619 mmHg 86%
    10:00 -21°C° 0 mm 3 mps 620 mmHg 83%
    11:00 -21°C° 0 mm 3 mps 620 mmHg 82%
    12:00 -19°C° 0 mm 3 mps 619 mmHg 81%
    13:00 -19°C° 0 mm 3 mps 619 mmHg 80%
    14:00 -21°C° 0 mm 3 mps 619 mmHg 82%
    15:00 -22°C° 0 mm 3 mps 619 mmHg 83%
    16:00 -22°C° 0 mm 3 mps 619 mmHg 84%
    17:00 -23°C° 0 mm 2 mps 619 mmHg 88%
    18:00 -24°C° 0 mm 2 mps 618 mmHg 92%
    19:00 -23°C° 0 mm 1 mps 618 mmHg 95%
    20:00 -23°C° 0 mm 1 mps 618 mmHg 95%
    21:00 -24°C° 0 mm 1 mps 618 mmHg 95%
    22:00 -24°C° 0 mm 1 mps 618 mmHg 96%
    23:00 -24°C° 0 mm 1 mps 618 mmHg 96%

    27 February, Tuesday

    Time Temperature Precipitation Wind Pressure Humidity
    00:00 -24°C° 0 mm 1 mps 618 mmHg 96%
    01:00 -24°C° 0 mm 1 mps 618 mmHg 96%
    02:00 -25°C° 0 mm 1 mps 618 mmHg 96%
    03:00 -25°C° 0 mm 1 mps 618 mmHg 96%
    04:00 -25°C° 0 mm 1 mps 618 mmHg 96%
    05:00 -27°C° 0 mm 1 mps 618 mmHg 96%
    06:00 -27°C° 0 mm 1 mps 618 mmHg 96%
    07:00 -27°C° 0 mm 1 mps 618 mmHg 96%
    08:00 -24°C° 0 mm 1 mps 618 mmHg 92%
    09:00 -25°C° 0 mm 2 mps 619 mmHg 88%
    10:00 -23°C° 0 mm 2 mps 620 mmHg 83%
    11:00 -23°C° 0.1 mm 2 mps 620 mmHg 82%
    12:00 -21°C° 0.1 mm 2 mps 619 mmHg 80%
    13:00 -23°C° 0.1 mm 3 mps 619 mmHg 78%
    14:00 -23°C° 0.1 mm 3 mps 619 mmHg 80%
    15:00 -23°C° 0.1 mm 2 mps 619 mmHg 82%
    16:00 -23°C° 0.1 mm 2 mps 618 mmHg 84%
    17:00 -25°C° 0 mm 2 mps 618 mmHg 88%
    18:00 -23°C° 0 mm 1 mps 618 mmHg 92%
    19:00 -25°C° 0 mm 1 mps 617 mmHg 96%
    20:00 -25°C° 0 mm 1 mps 617 mmHg 96%
    21:00 -27°C° 0 mm 1 mps 617 mmHg 96%
    22:00 -27°C° 0 mm 1 mps 617 mmHg 96%
    23:00 -27°C° 0 mm 1 mps 617 mmHg 96%
    Show more